KJ4EBE Weather Reports


Display with metric or nautical units.
time (UTC)temp
F
wind
direction
speed
MPH
gust
MPH
rain 1hr
in
rain 24hr
in
rain mn
in
humidity
%
barometer
mb
20260506155210 55 31 4.0 4.0 0.02 0.02 0.02 95 1013.8
20260506153311 55 77 3.0 4.0 0.05 0.02 0.02 95 1013.3
20260506152808 55 324 2.0 6.0 0.05 0.02 0.02 94 1013.6
20260506152306 55 51 3.0 8.0 0.02 0.01 0.01 94 1012.3
20260506151804 56 82 7.0 11.0 0.00 0.01 0.01 92 1013.4
20260506151300 56 57 5.0 6.0 0.00 0.01 0.01 92 1014.0
20260506150757 56 74 2.0 6.0 0.00 0.01 0.01 93 1014.0
20260506150302 56 29 3.0 6.0 0.00 0.01 0.01 93 1013.8
20260506145751 57 15 4.0 7.0 0.00 0.01 0.01 93 1013.5
20260506145248 57 64 3.0 7.0 0.00 0.01 0.01 93 1013.1
20260506144745 57 73 2.0 9.0 0.00 0.01 0.01 93 1013.0
20260506144242 58 58 3.0 9.0 0.00 0.01 0.01 94 1013.1
20260506143740 59 359 3.0 6.0 0.00 0.01 0.01 93 1012.4
20260506143237 59 88 5.0 5.0 0.00 0.01 0.01 93 1012.7
20260506142735 60 49 4.0 6.0 0.00 0.01 0.01 93 1012.6
20260506142233 60 68 3.0 6.0 0.00 0.01 0.01 93 1012.9
20260506141731 60 34 2.0 6.0 0.00 0.01 0.01 93 1012.6
20260506141229 60 46 2.0 6.0 0.00 0.01 0.01 93 1012.1
20260506140726 60 63 4.0 5.0 0.00 0.01 0.01 93 1012.3
20260506140223 60 42 3.0 5.0 0.00 0.01 0.01 93 1012.4
20260506135719 61 44 3.0 6.0 0.00 0.01 0.01 92 1012.4
20260506135216 61 54 2.0 5.0 0.00 0.01 0.01 92 1012.1
20260506134713 62 74 2.0 4.0 0.00 0.01 0.01 92 1011.4
20260506134209 62 76 2.0 5.0 0.00 0.01 0.01 91 1011.3
20260506133706 62 70 3.0 4.0 0.00 0.01 0.01 91 1011.0
20260506133203 62 57 3.0 5.0 0.00 0.01 0.01 90 1011.0
20260506132700 62 65 1.0 5.0 0.00 0.01 0.01 90 1010.9
20260506132157 62 65 2.0 4.0 0.00 0.01 0.01 90 1011.1
20260506131655 62 42 3.0 4.0 0.00 0.01 0.01 89 1011.4
20260506131150 62 57 3.0 5.0 0.00 0.01 0.01 88 1011.3
20260506130647 63 45 1.0 2.0 0.00 0.01 0.01 88 1010.9
20260506130145 63 38 2.0 4.0 0.00 0.01 0.01 88 1010.8
20260506125643 63 53 2.0 4.0 0.00 0.01 0.01 88 1010.5
20260506125141 63 63 2.0 4.0 0.00 0.01 0.01 88 1010.5
20260506124638 63 62 5.0 5.0 0.00 0.01 0.01 88 1010.2
20260506124136 63 61 1.0 4.0 0.00 0.01 0.01 88 1010.1
20260506123633 63 64 2.0 3.0 0.00 0.01 0.01 88 1010.5
20260506123132 63 25 2.0 5.0 0.00 0.01 0.01 88 1010.3
20260506122628 63 357 4.0 6.0 0.00 0.01 0.01 88 1010.2
20260506122126 64 48 3.0 4.0 0.00 0.01 0.01 88 1010.3
20260506121623 64 53 3.0 4.0 0.00 0.01 0.01 88 1010.0
20260506121120 64 62 2.0 4.0 0.00 0.01 0.01 88 1010.1
20260506120618 64 91 4.0 5.0 0.00 0.01 0.01 88 1009.9
20260506120115 65 77 2.0 2.0 0.00 0.01 0.01 90 1009.8
20260506115613 65 86 2.0 2.0 0.00 0.01 0.01 90 1009.8
20260506115111 65 67 0.0 2.0 0.00 0.01 0.01 90 1009.7
20260506114608 65 23 2.0 3.0 0.00 0.01 0.01 90 1009.7
20260506114106 65 25 2.0 3.0 0.00 0.01 0.01 90 1009.7
20260506113604 65 66 2.0 2.0 0.00 0.01 0.01 91 1009.7
20260506113101 66 33 1.0 2.0 0.00 0.01 0.01 91 1009.6
20260506112557 66 33 1.0 2.0 0.00 0.01 0.01 91 1009.6
20260506112055 66 31 2.0 3.0 0.00 0.01 0.01 92 1009.7
20260506111553 66 12 1.0 2.0 0.00 0.01 0.01 92 1009.7
20260506111050 65 74 2.0 3.0 0.00 0.01 0.01 92 1009.7
20260506110547 65 54 2.0 4.0 0.02 0.01 0.01 92 1009.7
20260506110044 66 42 3.0 3.0 0.02 0.01 0.01 92 1009.6
20260506105540 66 311 1.0 2.0 0.00 0.00 0.00 93 1009.7
20260506105038 67 22 1.0 3.0 0.00 0.00 0.00 94 1009.4
20260506104536 67 60 0.0 3.0 0.00 0.00 0.00 94 1009.3
20260506104033 67 72 2.0 4.0 0.00 0.00 0.00 93 1009.1
20260506103530 68 63 2.0 4.0 0.00 0.00 0.00 94 1009.2
20260506103027 69 56 2.0 3.0 0.00 0.00 0.00 95 1009.0
20260506102526 69 67 2.0 4.0 0.00 0.00 0.00 96 1009.0
20260506102023 71 79 2.0 3.0 0.00 0.00 0.00 97 1009.1
20260506101519 73 52 0.0 2.0 0.00 0.00 0.00 98 1008.9
20260506101016 73 49 2.0 2.0 0.00 0.00 0.00 97 1008.8
20260506100514 73 115 0.0 2.0 0.00 0.00 0.00 97 1009.0
20260506100013 73 108 0.0 2.0 0.02 0.00 0.00 97 1008.7
20260506095511 74 41 0.0 2.0 0.00 0.00 0.00 97 1008.6
20260506095006 74 337 0.0 1.0 0.00 0.00 0.00 96 1008.4
20260506094505 74 330 1.0 1.0 0.00 0.00 0.00 96 1008.5
20260506094002 74 27 0.0 1.0 0.00 0.00 0.00 95 1008.6
20260506093500 74 40 0.0 1.0 0.00 0.00 0.00 94 1008.5
20260506092958 74 39 0.0 2.0 0.00 0.00 0.00 94 1008.5
20260506092455 74 58 1.0 2.0 0.00 0.00 0.00 94 1008.5
20260506091951 74 193 0.0 2.0 0.00 0.00 0.00 94 1008.6
20260506091450 74 48 0.0 1.0 0.00 0.00 0.00 94 1008.5
20260506090947 74 229 0.0 2.0 0.00 0.00 0.00 94 1008.3
20260506090445 74 68 1.0 2.0 0.00 0.00 0.00 94 1008.2
20260506085941 74 92 0.0 4.0 0.00 0.00 0.00 94 1008.3
20260506085438 74 75 2.0 2.0 0.00 0.00 0.00 94 1008.2
20260506084934 74 120 1.0 2.0 0.00 0.00 0.00 94 1008.2
20260506084431 75 216 0.0 2.0 0.00 0.00 0.00 94 1008.1
20260506083927 75 277 1.0 2.0 0.00 0.00 0.00 94 1008.2
20260506083425 75 200 1.0 2.0 0.00 0.00 0.00 93 1008.1
20260506082922 75 33 0.0 1.0 0.00 0.00 0.00 93 1008.1
20260506082419 75 217 2.0 3.0 0.00 0.00 0.00 93 1008.2
20260506081914 75 313 1.0 2.0 0.00 0.00 0.00 93 1007.7
20260506081413 75 49 1.0 2.0 0.00 0.00 0.00 93 1008.1
20260506080910 75 269 0.0 2.0 0.00 0.00 0.00 93 1008.2
20260506080407 75 119 0.0 2.0 0.00 0.00 0.00 93 1008.1
20260506073351 75 315 0.0 3.0 0.00 0.00 0.00 93 1008.4
20260506072847 75 224 0.0 3.0 0.00 0.00 0.00 93 1008.5
20260506072345 75 274 0.0 3.0 0.00 0.00 0.00 93 1008.5
20260506071843 75 31 0.0 3.0 0.00 0.00 0.00 93 1008.8
20260506071341 75 230 2.0 3.0 0.00 0.00 0.00 93 1008.6
20260506070837 75 326 0.0 4.0 0.00 0.00 0.00 93 1008.5
20260506070334 75 209 2.0 3.0 0.00 0.00 0.00 93 1008.3
20260506062312 75 282 0.0 3.0 0.00 0.00 0.00 93 1008.6
20260506061807 75 218 0.0 1.0 0.00 0.00 0.00 94 1008.5
20260506061304 75 62 0.0 1.0 0.00 0.00 0.00 94 1008.4
20260506060803 75 53 0.0 3.0 0.00 0.00 0.00 94 1008.4
20260506060300 75 289 0.0 3.0 0.00 0.00 0.00 94 1008.2
20260506051232 74 155 2.0 4.0 0.00 0.00 0.00 94 1007.2
20260506050730 74 180 1.0 4.0 0.00 0.00 0.00 93 1007.4
20260506050227 74 202 0.0 3.0 0.00 0.00 0.00 93 1007.4
20260506044718 75 37 0.0 2.0 0.00 0.00 0.00 92 1007.5
20260506044215 75 206 1.0 3.0 0.00 0.00 0.00 92 1007.5
20260506043712 75 344 2.0 7.0 0.00 0.00 0.00 91 1007.4
20260506043210 75 216 2.0 3.0 0.00 0.00 0.00 91 1007.3
20260506042709 75 245 0.0 3.0 0.00 0.00 0.00 91 1007.2
20260506042206 75 162 0.0 2.0 0.00 0.00 0.00 91 1007.2
20260506041705 75 44 0.0 3.0 0.00 0.00 0.00 91 1007.2
20260506041201 75 75 0.0 2.0 0.00 0.00 0.00 90 1007.4
20260506040658 75 11 0.0 2.0 0.00 0.00 0.00 90 1007.4
20260506040155 75 50 0.0 3.0 0.00 0.00 0.00 90 1007.2
20260506035652 75 249 0.0 4.0 0.00 0.00 0.00 90 1007.2
20260506035149 75 164 0.0 3.0 0.00 0.00 0.00 89 1007.5
20260506034646 75 140 0.0 3.0 0.00 0.00 0.00 89 1007.4
20260506034143 75 104 0.0 3.0 0.00 0.00 0.00 89 1007.0
20260506033640 75 245 0.0 3.0 0.00 0.00 0.00 89 1007.1
20260506033137 76 71 0.0 3.0 0.00 0.00 0.00 88 1007.0
20260506032634 76 238 0.0 4.0 0.00 0.00 0.00 88 1007.1
20260506032131 76 210 3.0 3.0 0.00 0.00 0.00 88 1007.1
20260506031628 76 61 0.0 4.0 0.00 0.00 0.00 87 1006.9
20260506031125 76 217 3.0 5.0 0.00 0.00 0.00 87 1006.9
20260506030624 76 322 0.0 3.0 0.00 0.00 0.00 86 1006.9
20260506030120 76 296 0.0 4.0 0.00 0.00 0.00 86 1007.1
20260506025617 76 217 0.0 4.0 0.00 0.00 0.00 86 1006.7
20260506025113 76 105 1.0 5.0 0.00 0.00 0.00 86 1006.6
20260506024611 77 208 1.0 4.0 0.00 0.00 0.00 85 1006.5
20260506024107 77 226 0.0 2.0 0.00 0.00 0.00 85 1006.4
20260506023603 77 230 0.0 2.0 0.00 0.00 0.00 85 1006.2
20260506023101 77 319 1.0 2.0 0.00 0.00 0.00 84 1006.1
20260506022558 77 164 0.0 3.0 0.00 0.00 0.00 84 1006.2
20260506022055 77 244 0.0 2.0 0.00 0.00 0.00 84 1006.3
20260506021553 77 64 1.0 3.0 0.00 0.00 0.00 84 1006.3
20260506021050 77 337 0.0 4.0 0.00 0.00 0.00 83 1006.2
20260506020547 78 142 1.0 3.0 0.00 0.00 0.00 83 1006.1
20260506020044 78 230 0.0 1.0 0.00 0.00 0.00 83 1006.1
20260506015542 78 150 0.0 3.0 0.00 0.00 0.00 82 1006.1
20260506015039 78 77 1.0 3.0 0.00 0.00 0.00 82 1005.7
20260506014536 78 208 0.0 3.0 0.00 0.00 0.00 82 1005.8
20260506014032 79 22 0.0 2.0 0.00 0.00 0.00 81 1005.7
20260506013531 79 118 1.0 5.0 0.00 0.00 0.00 81 1005.8
20260506013026 79 60 2.0 4.0 0.00 0.00 0.00 81 1005.6
20260506012522 79 49 1.0 5.0 0.00 0.00 0.00 80 1005.4
20260506012020 79 185 2.0 3.0 0.00 0.00 0.00 80 1005.5
20260506011517 80 164 0.0 5.0 0.00 0.00 0.00 79 1005.5
20260506011014 80 135 2.0 2.0 0.00 0.00 0.00 79 1005.3
20260506010513 80 39 2.0 3.0 0.00 0.00 0.00 78 1005.3
20260506010009 80 288 0.0 2.0 0.00 0.00 0.00 78 1005.5
20260506005507 81 251 1.0 3.0 0.00 0.00 0.00 77 1005.3
20260506005002 81 191 2.0 4.0 0.00 0.00 0.00 76 1005.3
20260506004500 81 193 6.0 9.0 0.00 0.00 0.00 76 1005.3
20260506003955 82 213 2.0 5.0 0.00 0.00 0.00 75 1005.0
20260506003452 82 216 6.0 7.0 0.00 0.00 0.00 74 1005.2
20260506002948 82 78 1.0 5.0 0.00 0.00 0.00 74 1005.1
20260506002445 83 139 2.0 6.0 0.00 0.00 0.00 73 1005.3
20260506001940 83 75 0.0 3.0 0.00 0.00 0.00 73 1005.3
20260506001437 84 154 2.0 4.0 0.00 0.00 0.00 72 1005.3
20260506000935 85 249 1.0 4.0 0.00 0.00 0.00 71 1005.3
20260506000432 85 193 0.0 4.0 0.00 0.00 0.00 71 1005.2
20260505235929 85 117 1.0 2.0 0.00 0.00 0.00 71 1005.2
20260505235427 85 48 0.0 2.0 0.00 0.00 0.00 70 1005.4
20260505234923 85 79 1.0 4.0 0.00 0.00 0.00 70 1005.3
20260505234421 86 169 2.0 5.0 0.00 0.00 0.00 70 1005.2
20260505233917 86 254 2.0 4.0 0.00 0.00 0.00 67 1005.3
20260505233416 86 39 0.0 3.0 0.00 0.00 0.00 64 1005.2
20260505232913 86 169 2.0 2.0 0.00 0.00 0.00 63 1005.1
20260505232411 86 243 0.0 2.0 0.00 0.00 0.00 64 1005.1
20260505231907 87 244 2.0 5.0 0.00 0.00 0.00 63 1005.2
20260505231405 87 193 4.0 5.0 0.00 0.00 0.00 62 1005.2
20260505230903 88 245 1.0 3.0 0.00 0.00 0.00 62 1005.1
20260505230400 87 231 0.0 5.0 0.00 0.00 0.00 64 1005.1
20260505225856 87 314 0.0 1.0 0.00 0.00 0.00 62 1004.9
20260505225354 87 215 0.0 5.0 0.00 0.00 0.00 64 1005.0
20260505224848 87 136 6.0 7.0 0.00 0.00 0.00 64 1005.0
20260505224347 88 209 1.0 9.0 0.00 0.00 0.00 62 1005.0
20260505223843 89 252 5.0 6.0 0.00 0.00 0.00 62 1005.0
20260505223340 88 78 5.0 6.0 0.00 0.00 0.00 63 1005.0
20260505222836 88 136 1.0 7.0 0.00 0.00 0.00 62 1005.2
20260505222332 88 57 0.0 3.0 0.00 0.00 0.00 62 1005.0
20260505221830 89 225 2.0 5.0 0.00 0.00 0.00 62 1005.1
20260505221326 89 240 4.0 6.0 0.00 0.00 0.00 62 1005.1
20260505220823 89 346 2.0 4.0 0.00 0.00 0.00 63 1005.0
20260505220320 88 158 2.0 6.0 0.00 0.00 0.00 64 1004.9
20260505215818 88 208 2.0 4.0 0.00 0.00 0.00 63 1005.0
20260505215316 89 229 2.0 5.0 0.00 0.00 0.00 62 1005.1
20260505214814 89 215 3.0 5.0 0.00 0.00 0.00 62 1005.1
20260505214311 89 224 4.0 4.0 0.00 0.00 0.00 63 1005.1
20260505213808 90 134 1.0 3.0 0.00 0.00 0.00 62 1005.1
20260505213306 88 217 3.0 7.0 0.00 0.00 0.00 64 1005.4
20260505212801 88 336 0.0 6.0 0.00 0.00 0.00 64 1005.4
20260505212259 88 240 5.0 5.0 0.00 0.00 0.00 63 1005.5
20260505211755 88 298 2.0 3.0 0.00 0.00 0.00 64 1005.4
20260505211253 88 49 3.0 5.0 0.00 0.00 0.00 65 1005.4
20260505210749 91 254 5.0 5.0 0.00 0.00 0.00 60 1005.5
20260505210246 89 121 0.0 2.0 0.00 0.00 0.00 66 1005.5
20260505205743 89 217 3.0 4.0 0.00 0.00 0.00 62 1005.5
20260505205241 88 249 4.0 6.0 0.00 0.00 0.00 64 1005.6
20260505204737 89 269 0.0 7.0 0.00 0.00 0.00 64 1005.7
20260505204236 88 176 2.0 5.0 0.00 0.00 0.00 65 1005.9
20260505203732 89 139 1.0 6.0 0.00 0.00 0.00 65 1006.0
20260505203229 88 191 3.0 9.0 0.00 0.00 0.00 64 1006.0
20260505202725 89 298 1.0 4.0 0.00 0.00 0.00 63 1006.0
20260505202221 88 152 1.0 5.0 0.00 0.00 0.00 64 1005.8
20260505201718 88 282 3.0 5.0 0.00 0.00 0.00 63 1005.9
20260505201216 88 76 0.0 6.0 0.00 0.00 0.00 64 1005.7
20260505200714 89 145 0.0 6.0 0.00 0.00 0.00 62 1005.9
20260505200210 89 59 1.0 9.0 0.00 0.00 0.00 64 1005.8
20260505195706 89 69 2.0 4.0 0.00 0.00 0.00 63 1005.8
20260505195204 88 49 4.0 7.0 0.00 0.00 0.00 64 1006.0
20260505194701 87 181 0.0 5.0 0.00 0.00 0.00 66 1006.1
20260505194157 87 243 2.0 5.0 0.00 0.00 0.00 64 1006.1
20260505193653 87 93 5.0 8.0 0.00 0.00 0.00 64 1006.0
20260505193151 87 216 3.0 8.0 0.00 0.00 0.00 65 1006.1
20260505192649 86 197 2.0 6.0 0.00 0.00 0.00 66 1006.4
20260505192146 86 238 4.0 11.0 0.00 0.00 0.00 66 1006.3
20260505191645 86 113 3.0 6.0 0.00 0.00 0.00 67 1006.3
20260505191142 86 99 5.0 6.0 0.00 0.00 0.00 68 1006.4
20260505190638 86 271 4.0 10.0 0.00 0.00 0.00 68 1006.4
20260505190133 85 207 3.0 6.0 0.00 0.00 0.00 68 1006.3
20260505185630 85 123 5.0 11.0 0.00 0.00 0.00 69 1006.5
20260505185126 85 108 0.0 6.0 0.00 0.00 0.00 71 1006.9
20260505184623 85 271 0.0 7.0 0.00 0.00 0.00 70 1006.9
20260505184120 84 155 0.0 9.0 0.00 0.00 0.00 71 1006.7
20260505183616 84 111 2.0 7.0 0.00 0.00 0.00 71 1007.0
20260505183114 85 103 0.0 8.0 0.00 0.00 0.00 72 1007.1
20260505182610 85 245 6.0 11.0 0.00 0.00 0.00 69 1007.1
20260505182107 85 109 0.0 9.0 0.00 0.00 0.00 70 1007.2
20260505181604 84 248 2.0 6.0 0.00 0.00 0.00 70 1007.0
20260505181101 84 202 3.0 8.0 0.00 0.00 0.00 71 1007.3
20260505180556 83 192 1.0 8.0 0.00 0.00 0.00 72 1007.3
20260505180055 83 145 4.0 8.0 0.00 0.00 0.00 71 1007.4
20260505175550 84 220 0.0 5.0 0.00 0.00 0.00 70 1007.3
20260505175047 84 123 0.0 4.0 0.00 0.00 0.00 71 1007.6
20260505174544 83 190 4.0 11.0 0.00 0.00 0.00 71 1007.6
20260505174040 82 25 0.0 12.0 0.00 0.00 0.00 75 1007.6
20260505173537 84 60 2.0 9.0 0.00 0.00 0.00 71 1007.4
20260505173034 83 215 2.0 4.0 0.00 0.00 0.00 72 1007.5
20260505172532 82 268 5.0 8.0 0.00 0.00 0.00 72 1007.6
20260505172028 83 256 7.0 8.0 0.00 0.00 0.00 71 1007.8
20260505171522 83 250 8.0 11.0 0.00 0.00 0.00 72 1007.6
20260505171020 82 262 1.0 5.0 0.00 0.00 0.00 74 1007.5
20260505170516 81 242 4.0 14.0 0.00 0.00 0.00 74 1007.5
20260505170012 82 137 0.0 6.0 0.00 0.00 0.00 73 1007.3
20260505165507 81 240 1.0 12.0 0.00 0.00 0.00 73 1007.2
20260505165004 81 244 7.0 13.0 0.00 0.00 0.00 73 1007.3
20260505164500 80 227 4.0 15.0 0.00 0.00 0.00 74 1007.4
20260505163958 81 181 3.0 5.0 0.00 0.00 0.00 74 1007.4
20260505163456 80 263 4.0 10.0 0.00 0.00 0.00 74 1007.4
20260505162956 80 262 3.0 11.0 0.00 0.00 0.00 75 1007.3
20260505162451 80 175 3.0 7.0 0.00 0.00 0.00 75 1007.4
20260505161948 80 193 4.0 10.0 0.00 0.00 0.00 75 1007.5
20260505161444 80 154 2.0 6.0 0.00 0.00 0.00 75 1007.8
20260505160942 79 236 2.0 9.0 0.00 0.00 0.00 76 1007.6
20260505160440 79 159 2.0 8.0 0.00 0.00 0.00 76 1007.8